Date String (YYYY-MM-DD hh:mm:ss) UTC,Instrument flags,absolute air pressure of the measurement (hPa),sample flow rate (lpm),inlet stack bypass flow (lpm),air temperature of the measurement (°C),ambient temperature measured by the external sensor (°C),aerosol sample conditioner tube jacket temperature (°C),OPC LED temperature (°C),internal box temperature (°C),relative humidity of the measurement (%),span deviation,mass concentration of particles derived from Lorenz-Mie calculation of OPC scattering (μg/m³),mass concentration of particles derived from Lorenz-Mie calculation of OPC scattering (μg/m³),mass concentration of particles derived from Lorenz-Mie calculation of OPC scattering (μg/m³)
DateTimeUTC,F1_M11,P_M11,Q1_M11,Q2_M11,T1_M11,T2_M11,T3_M11,T4_M11,T5_M11,U1_M11,ZSPAN_M11,X0_M11,X2_M11,X1_M11
2024-02-06 22:00:00,SystemResetWarning,0821.4,5.01,000.00,023.4,022.9,000.0,031.6,025.2,13.8,0000.0,0002.26,0001.68,0001.48
2024-02-06 22:01:00,SystemResetWarning,0821.3,5.00,000.00,023.4,022.9,000.0,031.6,025.2,13.8,0000.0,0002.16,0001.72,0001.54
2024-02-06 22:02:00,SystemResetWarning,0821.4,5.00,000.00,023.4,022.8,000.0,031.6,025.1,13.3,0000.0,0002.21,0001.78,0001.60
2024-02-06 22:03:00,SystemResetWarning,0821.4,5.00,000.00,023.4,022.8,000.0,031.7,025.2,13.7,0000.0,0002.26,0001.84,0001.65
2024-02-06 22:04:00,SystemResetWarning,0821.5,5.00,000.00,023.4,022.8,000.0,031.7,025.2,13.4,0000.0,0002.54,0001.91,0001.71
2024-02-06 22:05:00,SystemResetWarning,0821.5,5.00,000.00,023.4,022.8,000.0,031.7,025.2,13.2,0000.0,0002.66,0001.96,0001.77
2024-02-06 22:06:00,SystemResetWarning,0821.6,4.99,000.00,023.4,022.8,000.0,031.7,025.2,12.9,0000.0,0002.64,0002.00,0001.81
2024-02-06 22:07:00,SystemResetWarning,0821.4,5.00,000.00,023.4,022.8,000.0,031.7,025.2,12.7,0000.0,0002.63,0002.02,0001.83
2024-02-06 22:08:00,SystemResetWarning,0821.3,5.00,000.00,023.4,022.8,000.0,031.7,025.2,12.9,0000.0,0002.65,0002.03,0001.86
2024-02-06 22:09:00,SystemResetWarning,0821.3,5.00,000.00,023.4,022.9,000.0,031.7,025.2,12.8,0000.0,0002.70,0002.04,0001.86
2024-02-06 22:10:00,SystemResetWarning,0821.3,5.01,000.00,023.4,022.9,000.0,031.7,025.2,12.9,0000.0,0003.03,0002.05,0001.86
2024-02-06 22:11:00,SystemResetWarning,0821.3,5.01,000.00,023.4,022.8,000.0,031.7,025.2,12.9,0000.0,0002.99,0002.04,0001.87
2024-02-06 22:12:00,SystemResetWarning,0821.3,4.99,000.00,023.4,022.8,000.0,031.7,025.2,13.0,0000.0,0002.97,0002.04,0001.88
2024-02-06 22:13:00,SystemResetWarning,0821.4,4.99,000.00,023.4,022.8,000.0,031.7,025.2,13.1,0000.0,0002.99,0002.04,0001.86
2024-02-06 22:14:00,SystemResetWarning,0821.6,4.99,000.00,023.4,022.8,000.0,031.7,025.1,13.6,0000.0,0002.98,0002.02,0001.83
2024-02-06 22:15:00,SystemResetWarning,0821.7,5.01,000.00,023.4,022.8,000.0,031.7,025.1,13.8,0000.0,0002.75,0001.98,0001.79
2024-02-06 22:16:00,SystemResetWarning,0821.7,5.01,000.00,023.4,022.8,000.0,031.7,025.1,13.6,0000.0,0002.83,0001.93,0001.75
2024-02-06 22:17:00,SystemResetWarning,0822.0,5.01,000.00,023.4,022.8,000.0,031.7,025.1,13.3,0000.0,0003.24,0001.88,0001.71
2024-02-06 22:18:00,SystemResetWarning,0822.0,5.00,000.00,023.4,022.8,000.0,031.7,025.2,13.2,0000.0,0003.31,0001.83,0001.67
2024-02-06 22:19:00,SystemResetWarning,0821.9,5.00,000.00,023.4,022.8,000.0,031.7,025.2,13.4,0000.0,0003.24,0001.79,0001.63
2024-02-06 22:20:00,SystemResetWarning,0822.0,5.00,000.00,023.4,022.8,000.0,031.7,025.2,13.5,0000.0,0003.15,0001.74,0001.60
2024-02-06 22:21:00,SystemResetWarning,0822.1,5.00,000.00,023.4,022.8,000.0,031.7,025.2,13.3,0000.0,0002.93,0001.73,0001.58
2024-02-06 22:22:00,SystemResetWarning,0821.9,5.00,000.00,023.5,022.9,000.0,031.8,025.2,13.4,0000.0,0002.88,0001.71,0001.54
2024-02-06 22:23:00,SystemResetWarning,0821.9,5.00,000.00,023.5,022.9,000.0,031.8,025.3,13.4,0000.0,0003.01,0001.73,0001.52
2024-02-06 22:24:00,SystemResetWarning,0822.0,5.00,000.00,023.5,022.9,000.0,031.8,025.2,13.2,0000.0,0003.10,0001.73,0001.53
2024-02-06 22:25:00,SystemResetWarning,0822.1,5.00,000.00,023.5,022.9,000.0,031.8,025.3,13.1,0000.0,0003.09,0001.75,0001.56
2024-02-06 22:26:00,SystemResetWarning,0821.9,5.00,000.00,023.5,022.9,000.0,031.8,025.3,12.9,0000.0,0003.18,0001.81,0001.61
2024-02-06 22:27:00,SystemResetWarning,0822.0,5.00,000.00,023.5,023.0,000.0,031.8,025.3,12.8,0000.0,0003.22,0001.90,0001.66
2024-02-06 22:28:00,SystemResetWarning,0822.0,5.00,000.00,023.5,023.0,000.0,031.8,025.3,13.0,0000.0,0002.79,0001.98,0001.71
2024-02-06 22:29:00,SystemResetWarning,0821.9,5.00,000.00,023.5,023.0,000.0,031.8,025.3,13.1,0000.0,0002.81,0002.07,0001.77
2024-02-06 22:30:00,SystemResetWarning,0821.9,5.00,000.00,023.5,023.0,000.0,031.8,025.3,13.2,0000.0,0002.93,0002.16,0001.85
2024-02-06 22:31:00,SystemResetWarning,0821.4,5.00,000.00,023.6,023.0,000.0,031.8,025.3,13.4,0000.0,0003.23,0002.23,0001.89
2024-02-06 22:32:00,SystemResetWarning,0821.4,5.00,000.00,023.6,023.0,000.0,031.8,025.4,13.6,0000.0,0004.47,0002.26,0001.93
2024-02-06 22:33:00,SystemResetWarning,0821.3,5.00,000.00,023.6,023.0,000.0,031.8,025.4,13.7,0000.0,0004.55,0002.34,0001.97
2024-02-06 22:34:00,SystemResetWarning,0821.3,5.00,000.00,023.6,023.0,000.0,031.8,025.4,13.8,0000.0,0004.47,0002.34,0002.00
2024-02-06 22:35:00,SystemResetWarning,0821.3,5.00,000.00,023.6,023.0,000.0,031.8,025.4,13.9,0000.0,0004.36,0002.34,0002.01
2024-02-06 22:36:00,SystemResetWarning,0821.3,5.00,000.00,023.6,023.0,000.0,031.8,025.4,14.0,0000.0,0004.46,0002.37,0002.02
2024-02-06 22:37:00,SystemResetWarning,0821.3,5.00,000.00,023.6,023.0,000.0,031.9,025.4,14.1,0000.0,0004.47,0002.35,0002.00
2024-02-06 22:38:00,SystemResetWarning,0821.2,5.00,000.00,023.6,023.1,000.0,031.9,025.4,14.2,0000.0,0004.39,0002.32,0001.99
2024-02-06 22:39:00,SystemResetWarning,0821.2,5.00,000.00,023.6,023.1,000.0,031.9,025.4,13.7,0000.0,0004.47,0002.31,0001.97
2024-02-06 22:40:00,SystemResetWarning,0821.3,5.00,000.00,023.6,023.1,000.0,031.9,025.4,13.4,0000.0,0004.53,0002.30,0001.95
2024-02-06 22:41:00,SystemResetWarning,0821.1,5.00,000.00,023.6,023.1,000.0,031.9,025.5,13.9,0000.0,0004.46,0002.24,0001.92
2024-02-06 22:42:00,SystemResetWarning,0821.1,5.00,000.00,023.6,023.1,000.0,031.9,025.5,13.6,0000.0,0004.20,0002.25,0001.90
2024-02-06 22:43:00,SystemResetWarning,0821.1,5.00,000.00,023.7,023.1,000.0,031.9,025.5,13.1,0000.0,0003.31,0002.29,0001.92
2024-02-06 22:44:00,SystemResetWarning,0821.0,4.99,000.00,023.7,023.1,000.0,031.9,025.5,12.6,0000.0,0003.41,0002.30,0001.93
2024-02-06 22:45:00,SystemResetWarning,0821.4,5.00,000.00,023.7,023.1,000.0,032.0,025.5,12.8,0000.0,0003.63,0002.32,0001.93
2024-02-06 22:46:00,SystemResetWarning,0821.2,5.01,000.00,023.7,023.1,000.0,032.0,025.5,12.8,0000.0,0003.82,0002.38,0001.96
2024-02-06 22:47:00,SystemResetWarning,0821.4,5.01,000.00,023.7,023.1,000.0,032.0,025.5,13.2,0000.0,0003.78,0002.38,0001.98
2024-02-06 22:48:00,SystemResetWarning,0821.1,5.01,000.00,023.7,023.1,000.0,032.0,025.5,13.3,0000.0,0003.85,0002.42,0002.03
2024-02-06 22:49:00,SystemResetWarning,0821.1,4.99,000.00,023.7,023.2,000.0,032.0,025.5,13.3,0000.0,0003.91,0002.48,0002.09
2024-02-06 22:50:00,SystemResetWarning,0821.2,4.99,000.00,023.7,023.2,000.0,032.0,025.5,13.8,0000.0,0003.88,0002.51,0002.12
2024-02-06 22:51:00,SystemResetWarning,0821.2,5.01,000.00,023.7,023.2,000.0,032.0,025.5,13.9,0000.0,0003.81,0002.54,0002.17
2024-02-06 22:52:00,SystemResetWarning,0821.2,5.01,000.00,023.7,023.2,000.0,032.0,025.5,13.6,0000.0,0003.94,0002.63,0002.21
2024-02-06 22:53:00,SystemResetWarning,0821.2,4.98,000.00,023.8,023.2,000.0,032.0,025.5,13.6,0000.0,0004.15,0002.68,0002.27
2024-02-06 22:54:00,SystemResetWarning,0821.2,4.99,000.00,023.8,023.2,000.0,032.0,025.5,13.4,0000.0,0005.04,0002.69,0002.31
2024-02-06 22:55:00,SystemResetWarning,0821.2,5.01,000.00,023.8,023.2,000.0,032.0,025.5,13.4,0000.0,0004.96,0002.70,0002.32
2024-02-06 22:56:00,SystemResetWarning,0821.2,5.00,000.00,023.8,023.2,000.0,032.0,025.5,13.3,0000.0,0005.83,0002.75,0002.36
2024-02-06 22:57:00,SystemResetWarning,0821.2,4.99,000.00,023.8,023.2,000.0,032.1,025.6,13.2,0000.0,0005.97,0002.79,0002.38
2024-02-06 22:58:00,SystemResetWarning,0821.2,4.99,000.00,023.8,023.2,000.0,032.1,025.6,13.2,0000.0,0006.31,0002.88,0002.42
2024-02-06 22:59:00,SystemResetWarning,0821.2,5.00,000.00,023.8,023.2,000.0,032.1,025.6,13.2,0000.0,0006.28,0002.91,0002.42
